Flag for Germany Weather past 2 weeks in Schwerin, Mecklenburg-Western Pomerania, Germany

Now
67 °F

Light rain. Low clouds.


Feels Like: 67 °F
Forecast: 57 / 76 °F
Wind: 3 mph from North

Location: Schwerin

Current Time: Jul 30, 2014 at 11:08:54 AM

Latest Report: Jul 30, 2014 at 10:00 AM


Visibility: 2 mi

Pressure: 29.76 "Hg

Humidity: 95%

Dew point: 66 °F

Location of SchwerinLocation

Historic Weather in Schwerin — Graph

°F

Schwerin temperature yesterday

Maximum temperature yesterday: 80 °F (at 12:00 PM)
Minimum temperature yesterday: 65 °F (at 5:00 AM)
Average temperature yesterday: 73 °F

Past Weeks' High & Low Weather Summary

 TemperatureHumidityPressure
High87 °F (Jul 19, 5:00 PM)98% (Jul 28, 8:00 AM)30.20 "Hg (Jul 28, 8:00 AM)
Low59 °F (Jul 18, 5:00 AM)32% (Jul 19, 4:00 PM)29.73 "Hg (Jul 30, 6:00 AM)
Average72 °F67%29.99 "Hg
* Reported Jul 15 10:00 AM — Jul 30 10:00 AM, Schwerin, Weather by CustomWeather, © 2014

Note: Actual official high and low records may vary slightly from our data, if they occured in-between our weather recording intervals... More about our weather records

Advertising

Schwerin weather history for previous 24 hours

 ConditionsComfort  
Time TempWeatherWind HumidityBarometerVisibility
10:00 AM
Jul 30
67 °FLight rain. Low clouds.3 mph95%29.76 "Hg2 mi
9:00 AM67 °FLight rain. Low clouds.2 mph96%29.75 "Hg2 mi
8:00 AM67 °FRain. Partly sunny.3 mph97%29.74 "Hg1 mi
7:00 AM67 °FRain. Overcast.2 mph97%29.73 "Hg2 mi
6:00 AM66 °FRain. Overcast.3 mph97%29.73 "Hg3 mi
4:00 AM66 °FLight rain. Overcast.3 mph92%29.74 "Hg4 mi
3:00 AM67 °FLight rain. Overcast.2 mph84%29.75 "Hg6 mi
2:00 AM69 °FOvercast.3 mph76%29.74 "Hg14 mi
1:00 AM69 °FOvercast.3 mph77%29.75 "Hg13 mi
12:00 AM70 °FOvercast.2 mph79%29.76 "Hg10 mi
11:00 PM
Jul 29
71 °FRain. Overcast.2 mph81%29.76 "Hg5 mi
10:00 PM73 °FOvercast.2 mph75%29.77 "Hg7 mi
9:00 PM76 °FOvercast.3 mph67%29.76 "Hg10 mi
8:00 PM77 °FOvercast.3 mph65%29.75 "Hg11 mi
7:00 PM78 °FOvercast.3 mph62%29.76 "Hg11 mi
6:00 PM79 °FOvercast.6 mph54%29.77 "Hg13 mi
4:00 PM80 °FOvercast.6 mph60%29.78 "Hg12 mi
3:00 PM79 °FOvercast.6 mph64%29.80 "Hg11 mi
2:00 PM79 °FOvercast.5 mph65%29.82 "Hg11 mi
1:00 PM78 °FOvercast.5 mph71%29.83 "Hg10 mi
12:00 PM80 °FOvercast.5 mph62%29.83 "Hg11 mi
11:00 AM75 °FOvercast.3 mph76%29.84 "Hg10 mi
Weather by CustomWeather, © 2014

See weather overviewHow to use our weather pages